Вернуться в каталог

COSMOS 903 DEB

LostHEO
NORAD 32963·DEBRIS·🇷🇺 Russia

Запущен Apr 11, 1977 с Plesetsk Cosmodrome

Loading…

Ближайшие Пролёты (ближайшие 24 часа)

TLE

УстаревшееSource: Space-Track

Эпоха: Jun 21, 2013, 00:06 UTC

1 32963U 77027J   13172.00418395  .00000000  00000-0  10000-3 0  9994
2 32963 068.8093 188.5165 5972908 028.3524 354.1820 02.03272956   107

Отслеживайте COSMOS 903 DEB в реальном времени с AllMySat

Download on the App Store